Location: Ettringen
(48.1054°N, 10.6545°E)
Time: 23:24:24
(UTC+00:00)

Cosmos 2251 Rocket - Pass Details

Date: 18 November 2025
Orbit: 760 x 788 km, 74.0° (Epoch: 05 December)

Event Time Altitude Azimuth Distance (km) Brightness Sun altitude
Rises 17:26:22 0° 203° (SSW) 3,232 7.2 -18.2°
Reaches altitude 10° 17:28:44 10° 204° (SSW) 2,314 6.4 -18.6°
Maximum altitude 17:34:00 82° 292° (WNW) 792 3.5 -19.5°
Enters shadow 17:38:34 14° 21° (NNE) 2,049 5.4 -20.2°
